Weather History for KSDL - December, 2012

Change the Weather History Date:

Saturday, December 15, 2012

  Actual Average Record
Temperature  
Mean Temperature 50 °F -  
Max Temperature 53 °F 62 °F 78 °F (1998)
Min Temperature 45 °F 41 °F 35 °F (1999)
Degree Days  
Heating Degree Days 14    
Moisture  
Dew Point 47 °F    
Average Humidity 89    
Maximum Humidity 97    
Minimum Humidity 80    
Precipitation  
Precipitation 0.59 in - - ()
Sea Level Pressure  
Sea Level Pressure 29.96 in    
Wind  
Wind Speed 4 mph (South)    
Max Wind Speed 9 mph    
Max Gust Speed 16 mph    
Visibility 7 miles    
Events Rain    
Averages and records for this station are not official NWS values.
T = Trace of Precipitation, MM = Missing Value Source: NWS Daily Summary

Daily Weather History Graph

Daily Weather History Graph

Search for Another Location

Airport or City:

Trip Planner

Search our weather history database for the weather conditions in past years. The results will help you decide how hot, cold, wet, or windy it might be!

Date:

Astronomy

Dec. 15, 2012 Rise Set
Actual Time 7:25 AM MST 5:21 PM MST
Civil Twilight 6:57 AM MST 5:48 PM MST
Nautical Twilight 6:26 AM MST 6:19 PM MST
Astronomical Twilight 5:55 AM MST 6:50 PM MST
Moon 9:25 AM MST (12/15) 8:23 PM MST (12/15)
Length of Visible Light 10h 51m
Length of Day
9h 56m
Waxing Crescent, 9% of the Moon is Illuminated
Dec 15
Waxing Crescent
Dec 19
First Quarter
Dec 28
Full
Jan 4
Last Quarter
Jan 11
New

Hourly Weather History & Observations

Time (MST) Temp. Dew Point Humidity Pressure Visibility Wind Dir Wind Speed Gust Speed Precip Events Conditions
12:34 AM 48.2 °F 46.4 °F 93% 30.01 in 4.0 mi Calm Calm - 0.08 in Rain Rain
12:53 AM 48.9 °F 46.0 °F 90% 29.97 in 7.0 mi ESE 8.1 mph - 0.11 in Rain Light Rain
1:03 AM 48.2 °F 46.4 °F 93% 30.00 in 10.0 mi SE 5.8 mph - 0.00 in Rain Light Rain
1:53 AM 48.9 °F 46.0 °F 90% 29.96 in 10.0 mi SE 5.8 mph - 0.05 in   Overcast
2:53 AM 48.0 °F 46.0 °F 93% 29.96 in 10.0 mi SE 5.8 mph - 0.00 in   Overcast
3:24 AM 48.2 °F 46.4 °F 93% 29.98 in 10.0 mi SE 4.6 mph - N/A   Overcast
3:53 AM 48.0 °F 46.0 °F 93% 29.95 in 10.0 mi ESE 3.5 mph - N/A   Overcast
4:53 AM 48.9 °F 46.0 °F 90% 29.94 in 10.0 mi ESE 4.6 mph - N/A   Overcast
5:53 AM 48.9 °F 46.0 °F 90% 29.94 in 10.0 mi Variable 3.5 mph - N/A   Overcast
6:53 AM 48.9 °F 46.0 °F 90% 29.97 in 10.0 mi SSE 3.5 mph - N/A   Overcast
7:53 AM 48.9 °F 46.0 °F 90% 29.98 in 10.0 mi SE 4.6 mph - N/A   Overcast
8:53 AM 50.0 °F 46.0 °F 86% 29.98 in 10.0 mi SE 3.5 mph - N/A   Overcast
9:53 AM 50.0 °F 46.0 °F 86% 29.99 in 10.0 mi SE 6.9 mph - 0.00 in Rain Light Rain
10:53 AM 51.1 °F 46.9 °F 86% 29.99 in 10.0 mi SSE 4.6 mph - 0.00 in Rain Light Rain
11:53 AM 51.1 °F 46.9 °F 86% 29.97 in 8.0 mi South 5.8 mph - 0.01 in Rain Light Rain
12:50 PM 51.8 °F 48.2 °F 88% 29.97 in 7.0 mi SSW 4.6 mph - 0.06 in Rain Light Rain
12:53 PM 51.1 °F 48.0 °F 89% 29.95 in 6.0 mi SSW 4.6 mph - 0.06 in Rain Light Rain
1:02 PM 51.8 °F 48.2 °F 88% 29.96 in 2.5 mi SSW 3.5 mph - 0.02 in Rain Light Rain
1:11 PM 51.8 °F 48.2 °F 88% 29.96 in 6.0 mi SSW 4.6 mph - 0.02 in Rain Light Rain
1:23 PM 51.8 °F 48.2 °F 88% 29.95 in 10.0 mi SW 6.9 mph - 0.02 in   Overcast
1:53 PM 53.1 °F 46.9 °F 80% 29.92 in 10.0 mi SSW 4.6 mph - 0.02 in   Overcast
2:53 PM 52.0 °F 48.0 °F 86% 29.91 in 5.0 mi Calm Calm - 0.03 in Rain Light Rain
3:05 PM 51.8 °F 48.2 °F 88% 29.93 in 1.8 mi Calm Calm - 0.04 in Rain Rain
3:22 PM 51.8 °F 48.2 °F 88% 29.92 in 2.0 mi NW 3.5 mph - 0.10 in Rain Rain
3:32 PM 51.8 °F 48.2 °F 88% 29.92 in 1.8 mi Variable 4.6 mph - 0.13 in Rain Rain
3:38 PM 51.8 °F 48.2 °F 88% 29.92 in 3.0 mi Variable 3.5 mph - 0.14 in Rain Rain
3:49 PM 51.8 °F 46.4 °F 82% 29.92 in 2.0 mi West 9.2 mph - 0.16 in Rain Rain
3:53 PM 51.1 °F 48.0 °F 89% 29.91 in 2.5 mi West 6.9 mph - 0.17 in Rain Light Rain
4:08 PM 51.8 °F 48.2 °F 88% 29.94 in 1.8 mi West 8.1 mph - 0.06 in Rain Rain
4:15 PM 50.0 °F 46.4 °F 87% 29.94 in 2.0 mi WNW 6.9 mph 16.1 mph 0.08 in Rain Rain
4:28 PM 50.0 °F 46.4 °F 87% 29.94 in 4.0 mi NNW 8.1 mph - 0.09 in Rain Light Rain
4:53 PM 48.9 °F 46.0 °F 90% 29.93 in 10.0 mi NNW 5.8 mph - 0.11 in Rain Light Rain
5:53 PM 50.0 °F 45.0 °F 83% 29.92 in 9.0 mi Calm Calm - 0.01 in Rain Light Rain
6:53 PM 48.9 °F 46.9 °F 93% 29.94 in 10.0 mi Calm Calm - 0.02 in Rain Light Rain
7:53 PM 48.9 °F 46.0 °F 90% 29.95 in 10.0 mi Calm Calm - 0.00 in   Overcast
8:53 PM 48.0 °F 46.0 °F 93% 29.96 in 10.0 mi Calm Calm - 0.00 in   Overcast
9:12 PM 48.2 °F 46.4 °F 93% 29.98 in 7.0 mi SSW 4.6 mph - N/A   Overcast
9:53 PM 48.0 °F 46.0 °F 93% 29.98 in 7.0 mi Calm Calm - N/A   Overcast
10:35 PM 48.2 °F 46.4 °F 93% 30.01 in 6.0 mi Calm Calm - N/A   Mostly Cloudy
10:53 PM 48.0 °F 46.0 °F 93% 29.99 in 5.0 mi Calm Calm - N/A   Mostly Cloudy
11:53 PM 45.0 °F 44.1 °F 97% 30.01 in 3.0 mi Calm Calm - N/A   Clear